TimeCST,TemperatureF,Dew PointF,Humidity,Sea Level PressureIn,VisibilityMPH,Wind Direction,Wind SpeedMPH,Gust SpeedMPH,PrecipitationIn,Events,Conditions,WindDirDegrees,DateUTC
12:15 AM,32.0,15.8,51,30.39,10.0,NW,9.2,-,N/A,,Clear,310,2012-11-24 06:15:00
12:35 AM,32.0,15.8,51,30.39,10.0,NW,8.1,-,N/A,,Clear,310,2012-11-24 06:35:00
12:55 AM,30.2,15.8,55,30.39,10.0,NW,9.2,-,N/A,,Clear,310,2012-11-24 06:55:00
1:35 AM,30.2,14.0,51,30.38,10.0,NW,5.8,-,N/A,,Clear,310,2012-11-24 07:35:00
2:15 AM,28.4,14.0,55,30.37,10.0,Calm,Calm,-,N/A,,Clear,0,2012-11-24 08:15:00
2:55 AM,28.4,14.0,55,30.37,10.0,Calm,Calm,-,N/A,,Clear,0,2012-11-24 08:55:00
3:15 AM,28.4,14.0,55,30.38,10.0,Calm,Calm,-,N/A,,Clear,0,2012-11-24 09:15:00
3:35 AM,28.4,14.0,55,30.37,10.0,WNW,5.8,-,N/A,,Clear,300,2012-11-24 09:35:00
3:55 AM,28.4,14.0,55,30.37,10.0,Calm,Calm,-,N/A,,Clear,0,2012-11-24 09:55:00
4:15 AM,28.4,14.0,55,30.37,10.0,NW,5.8,-,N/A,,Clear,310,2012-11-24 10:15:00
4:35 AM,26.6,14.0,59,30.37,10.0,Calm,Calm,-,N/A,,Clear,0,2012-11-24 10:35:00
4:55 AM,28.4,14.0,55,30.37,10.0,Calm,Calm,-,N/A,,Clear,0,2012-11-24 10:55:00
5:15 AM,26.6,14.0,59,30.37,10.0,Calm,Calm,-,N/A,,Clear,0,2012-11-24 11:15:00
5:35 AM,26.6,14.0,59,30.36,10.0,Calm,Calm,-,N/A,,Clear,0,2012-11-24 11:35:00
6:50 AM,26.6,14.0,59,30.36,10.0,Calm,Calm,-,N/A,,Mostly Cloudy,0,2012-11-24 12:50:00
7:45 AM,28.4,14.0,55,30.36,10.0,Calm,Calm,-,N/A,,Mostly Cloudy,0,2012-11-24 13:45:00
8:45 AM,30.2,12.2,47,30.36,10.0,Calm,Calm,-,N/A,,Mostly Cloudy,0,2012-11-24 14:45:00
9:45 AM,33.8,10.4,38,30.36,10.0,Calm,Calm,-,N/A,,Mostly Cloudy,0,2012-11-24 15:45:00
11:52 AM,41.0,15.8,36,30.28,10.0,Calm,Calm,-,N/A,,Scattered Clouds,0,2012-11-24 17:52:00
12:54 PM,44.6,14.0,29,30.25,10.0,SW,5.8,-,N/A,,Scattered Clouds,230,2012-11-24 18:54:00
1:45 PM,46.4,15.8,29,30.22,10.0,Calm,Calm,-,N/A,,Mostly Cloudy,0,2012-11-24 19:45:00
2:45 PM,48.2,15.8,27,30.18,10.0,Calm,Calm,-,N/A,,Mostly Cloudy,0,2012-11-24 20:45:00
4:49 PM,44.6,19.4,37,30.13,10.0,ESE,8.1,-,N/A,,Scattered Clouds,120,2012-11-24 22:49:00
5:47 PM,41.0,21.2,45,30.11,10.0,SE,11.5,-,N/A,,Scattered Clouds,140,2012-11-24 23:47:00
6:51 PM,39.2,19.4,45,30.11,10.0,SE,6.9,-,N/A,,Scattered Clouds,130,2012-11-25 00:51:00
7:50 PM,39.2,19.4,45,30.10,10.0,SSE,6.9,-,N/A,,Scattered Clouds,150,2012-11-25 01:50:00
8:15 PM,39.2,17.6,42,30.08,10.0,SSE,8.1,-,N/A,,Clear,160,2012-11-25 02:15:00
8:35 PM,39.2,17.6,42,30.08,10.0,SSE,6.9,-,N/A,,Clear,160,2012-11-25 02:35:00
8:47 PM,39.2,17.6,42,30.07,10.0,SSE,8.1,-,N/A,,Partly Cloudy,160,2012-11-25 02:47:00
8:55 PM,39.2,17.6,42,30.07,10.0,SSE,8.1,-,N/A,,Clear,160,2012-11-25 02:55:00
9:15 PM,39.2,19.4,45,30.07,10.0,SSE,8.1,-,N/A,,Clear,160,2012-11-25 03:15:00
9:35 PM,39.2,19.4,45,30.06,10.0,SSE,8.1,-,N/A,,Clear,160,2012-11-25 03:35:00
9:55 PM,39.2,19.4,45,30.06,10.0,SSE,5.8,-,N/A,,Clear,160,2012-11-25 03:55:00
10:15 PM,39.2,19.4,45,30.06,10.0,SSE,6.9,-,N/A,,Clear,160,2012-11-25 04:15:00
10:35 PM,39.2,19.4,45,30.04,10.0,SSE,5.8,-,N/A,,Clear,160,2012-11-25 04:35:00
10:55 PM,39.2,19.4,45,30.05,10.0,Calm,Calm,-,N/A,,Clear,0,2012-11-25 04:55:00
11:15 PM,35.6,23.0,60,30.05,10.0,Calm,Calm,-,N/A,,Clear,0,2012-11-25 05:15:00
11:35 PM,35.6,21.2,56,30.04,10.0,Calm,Calm,-,N/A,,Clear,0,2012-11-25 05:35:00
11:55 PM,33.8,23.0,65,30.04,10.0,Calm,Calm,-,N/A,,Clear,0,2012-11-25 05:55:00